NOAA 16 DEB, 42341

Orbit data source: Space-Track

NOAA 16 DEB, 42341 is space debris in SSO originally from a launch on Thu, 21 Sep 2000 UTC launched from the Air Force Western Test Range (AFWTR). Debris objects in space refer to the collection of defunct objects orbiting the Earth. Examples of debris include non-operational satellites, rocket bodies, and fragments generated from explosions, collisions, or faulty payload assembly.

Loading next visibility...
Identifier
42341, 2000-055QH
Orbit
SSO
Country
Flag of USUS
Related business
Manufacturer
Unknown
Mission
Spacecraft
Bus & Motor
Unknown
Mass
Unknown
Launch date (UTC)
2000-09-21 (26 years ago)
Launch vehicle
Unknown
Launch site
Air Force Western Test Range (AFWTR)
Object type
Payload
Rocket body
Debris
Shape & HBR
Unknown shape, 0.1 m
Radar Cross Section
Small (<0.1 m²)

Expand to show TLE details & history
Last TLE update: 1 day ago

TLE from 1 day ago
0 NOAA 16 DEB
1 42341U 00055QH  26171.24776301  .00018409  00000-0  24537-2 0  9996
2 42341  98.7235 324.1972 0021553 345.1056  14.9516 14.79526660541279
Epoch: 2026-06-20T05:56Z
TLE epoch observation values (Epoch: 2026-06-20T05:56:46.724Z)
Latitude
0.00003°
Longitude
-33.46261°
Altitude
619.218 km
Speed
7.557 km/s
True Right ascension
21h 36m 47s
True Declination
0° 00' 00"
Sunlit
Object was in full shadow at epoch
Visualization orbit readout
Latitude
Unknown
Longitude
Unknown
Altitude
Unknown
Speed
Unknown
Apparent Right ascension
Unknown
Apparent Declination
Unknown
Sunlit
N/A
Visualization observer readout
Local Sidereal Time
17:38:32
Azimuth
Unknown
Elevation
Unknown
Doppler factor
Unknown
Orbital elements
Apogee altitude
642.999 km
Perigee altitude
612.799 km
Semi-major axis
7,006.036 km
Eccentricity
0.00216
Inclination
98.7235°
RAAN
324.1972°
Arg. of periapsis
345.1056°
True anomaly
15.01549°
Mean anomaly
14.9516°
Eccentric anomaly
14.98353°
Mean motion
3.70113 °/min
Orbital period
97.27 mins
BSTAR
0.0024537
Loading maneuver chart data...
Computing Atmospheric mass density...
Loading historical data...
Loading historical data...
Loading historical data...
Loading historical data...
Loading historical data...
Loading historical data...
Loading historical data...

Documentation

Showing up to 5 results
|